Regional Weather Roundup
Issued by NWS

Home | Current Version | Previous Version | Graphics & Text | Print | Product List | Glossary Off
Versions: 1 2 3 4 5 6 7 8 9 10 11 12 13 14 15 16 17 18 19 20 21 22 23 24 25 26 27 28 29 30 31 32 33 34 35 36 37 38 39 40 41 42 43 44 45 46 47 48 49 50

300
ASUS43 KDMX 230206
RWRIA

WEATHER ROUNDUP FOR IOWA
NATIONAL WEATHER SERVICE DES MOINES IA
800 PM CST WED FEB 22 2017

NOTE: "FAIR" INDICATES FEW OR NO CLOUDS BELOW 12,000 FEET WITH NO
SIGNIFICANT WEATHER AND/OR OBSTRUCTIONS TO VISIBILITY.

* - THESE STATIONS ARE NOT NWS STATIONS...THUS NOT UNDER NWS
QUALITY CONTROL.  THEY ALSO DO NOT REPORT WEATHER SUCH
AS PRECIPITATION OR FOG.

IAZ001>003-012>014-020>022-031>034-043>046-230300-
   NORTHWEST IOWA

CITY           SKY/WX    TMP DP  RH WIND       PRES   REMARKS
CARROLL *      CLEAR     52  43  71 NW13      29.74R
CHEROKEE *     PTCLDY    47  41  79 NW13      29.75S
DENISON *      CLEAR     48  41  76 NW9       29.74R
LE MARS *      CLEAR     46  39  76 N7        29.78R
ORANGE CITY *  PTCLDY    45  41  87 NW12      29.76S
SHELDON *      PTCLDY    45  45 100 N12       29.75R
SIOUX CITY     CLEAR     51  40  65 N12       29.77R
SPENCER        CLEAR     44  41  89 N12       29.74R
STORM LAKE *   CLEAR     48  41  76 NW22G31   29.73S
$$

IAZ055>058-069>071-079>083-090>094-230300-
   SOUTHWEST IOWA

CITY           SKY/WX    TMP DP  RH WIND       PRES   REMARKS
ATLANTIC *     CLEAR     52  39  62 NW12      29.74R
CLARINDA *     CLEAR     52  41  66 N9        29.73R
COUNCIL BLFS * CLEAR     55  36  47 N10       29.74R
CRESTON *      CLEAR     55  37  50 N14G20    29.72R
HARLAN  *      CLEAR     50  39  66 N12       29.78R
LAMONI         CLEAR     58  40  51 NW6       29.69R
RED OAK *      CLEAR     57  39  51 N8        29.73R
SHENANDOAH *   CLEAR     59  39  47 N14       29.72R
$$

IAZ047>049-059>061-072>074-084-230300-
   CENTRAL IOWA

CITY           SKY/WX    TMP DP  RH WIND       PRES   REMARKS
AMES           CLEAR     55  45  68 W8        29.69R
ANKENY *       CLEAR     57  43  58 W10       29.70R
BOONE *        CLEAR     55  43  62 W9        29.69R
CHARITON *     CLEAR     57  39  51 NW10      29.69R
DES MOINES     CLEAR     59  42  53 NW9       29.70R
GRINNELL*      CLEAR     55  42  63 W8        29.68R
KNOXVILLE *    CLEAR     55  39  54 W8        29.67R
MARSHALLTOWN   CLEAR     47  43  86 W6        29.66R
NEWTON *       CLEAR     57  45  62 NW12      29.66R
PELLA *        CLEAR     56  41  56 NW7       29.68R
PERRY *          N/A     48  42  77 W9        29.71R
$$

IAZ004>006-015-016-023>025-035-036-230300-
   NORTH CENTRAL IOWA

CITY           SKY/WX    TMP DP  RH WIND       PRES   REMARKS
ALGONA *       CLEAR     46  43  87 NW16G22   29.72R
CLARION *      CLEAR     50  48  93 NW15G22   29.69R
ESTHERVILLE    PTCLDY    40  39  97 NW13      29.73R WCI  32
FORT DODGE *   CLEAR     50  37  62 NW9       29.72R
MASON CITY     CLEAR     48  43  82 NW18G28   29.68R
FOREST CITY *    N/A     45  39  81 NW17G24   29.69R
WEBSTER CITY * CLEAR     52  43  71 NW13G21   29.68R
IOWA FALLS *     N/A     51  46  84 W9        29.68R
$$

IAZ007>011-017>019-026>030-037>042-050>054-066-230300-
   NORTHEAST IOWA

CITY           SKY/WX    TMP DP  RH WIND       PRES   REMARKS
CEDAR RAPIDS   CLEAR     49  41  74 W10       29.63R
CHARLES CITY * CLEAR     50  48  93 W8        29.63R
CLINTON *      CLEAR     55  50  83 W12       29.62R
DECORAH *      CLEAR     50  45  81 VRB5      29.60R
DUBUQUE        CLEAR     55  44  66 W12       29.59S
MONTICELLO *   CLEAR     52  43  71 W6        29.61R
OELWEIN *      CLEAR     46  46 100 W8        29.63R
WATERLOO       CLEAR     50  43  77 W3        29.64R
$$

IAZ064-065-067-068-078-230300-
   EAST CENTRAL IOWA

CITY           SKY/WX    TMP DP  RH WIND       PRES   REMARKS
DAVENPORT      CLEAR     59  50  72 W12       29.64R
IOWA CITY      CLEAR     56  41  57 W8        29.65R
MUSCATINE *    CLEAR     61  41  48 W7        29.64R
QUAD CITIES    CLEAR    N/A N/A N/A SW9       29.63R
$$

IAZ062-063-075>077-085>089-095>099-230300-
   SOUTHEAST IOWA

CITY           SKY/WX    TMP DP  RH WIND       PRES   REMARKS
BURLINGTON     CLEAR     57  53  86 SW12      29.65R
FAIRFIELD *    CLEAR     59  37  44 NW10      29.65R
KEOKUK *       CLEAR     57  52  82 S7        29.66R
OTTUMWA        CLEAR     60  37  42 W7        29.66R
WASHINGTON *   CLEAR     59  41  51 NW16      29.66R
$$

ABBREVIATIONS USED IN REMARKS
   TC - TEMPERATURES IN CELSIUS
  WCI - WIND CHILL INDEX
   HX - HEAT INDEX
  VSB - VISIBILITY
$$





USA.gov is the U.S. government's official web portal to all federal, state and local government web resources and services.